Location: Niedergestelen
(46.3129°N, 7.7822°E)
Time: 05:59:14
(UTC+00:00)

NOAA 12 - Pass Details

Date: 01 December 2020
Orbit: 795 x 816 km, 98.5° (Epoch: 18 January)

Event Time Altitude Azimuth Distance (km) Brightness Sun altitude
Rises 16:11:43 0° 145° (SE) 3,330 7.2 -5.0°
Reaches altitude 10° 16:14:08 10° 139° (SE) 2,401 6.4 -5.4°
Maximum altitude 16:19:10 45° 68° (ENE) 1,097 4.4 -6.1°
Drops below altitude 10° 16:24:13 10° 357° (N) 2,409 6.4 -6.9°
Sets 16:26:38 0° 352° (N) 3,341 7.1 -7.3°
